Time,TemperatureF,DewpointF,PressureIn,WindDirection,WindDirectionDegrees,WindSpeedMPH,WindSpeedGustMPH,Humidity,HourlyPrecipIn,Conditions,Clouds,dailyrainin,SoftwareType,DateUTC
2013-08-06 00:00:00,62.4,57.2,29.99,NNE,31,0.0,0.0,83,0.00,,---,0.00,VWS V14.01,2013-08-06 04:00:00,
2013-08-06 00:01:00,62.4,56.8,29.99,NNE,31,0.0,0.0,82,0.00,,---,0.00,VWS V14.01,2013-08-06 04:01:00,
2013-08-06 00:06:00,62.4,57.5,29.99,NNE,31,0.0,0.0,84,0.00,,---,0.00,VWS V14.01,2013-08-06 04:06:00,
2013-08-06 00:10:00,62.4,57.5,29.99,NNE,31,0.0,0.0,84,0.00,,---,0.00,VWS V14.01,2013-08-06 04:10:00,
2013-08-06 00:11:00,62.2,57.3,29.99,NNE,31,0.0,0.0,84,0.00,,---,0.00,VWS V14.01,2013-08-06 04:11:00,
2013-08-06 00:20:00,62.8,57.6,29.99,NNW,347,0.0,0.0,83,0.00,,---,0.00,VWS V14.01,2013-08-06 04:20:00,
2013-08-06 00:30:00,63.0,57.8,29.99,NNE,31,0.0,0.0,83,0.00,,---,0.00,VWS V14.01,2013-08-06 04:30:00,
2013-08-06 00:40:00,62.7,57.8,29.99,NNE,31,0.0,0.0,84,0.00,,---,0.00,VWS V14.01,2013-08-06 04:40:00,
2013-08-06 00:50:00,62.4,57.8,29.99,NNE,31,0.0,0.0,85,0.00,,---,0.00,VWS V14.01,2013-08-06 04:50:00,
2013-08-06 01:00:00,62.4,57.2,29.99,NNE,32,0.0,0.0,83,0.00,,---,0.00,VWS V14.01,2013-08-06 05:00:00,
2013-08-06 01:10:00,62.4,57.5,29.99,NNE,31,0.0,0.0,84,0.00,,---,0.00,VWS V14.01,2013-08-06 05:10:00,
2013-08-06 07:00:00,57.6,55.0,29.98,SSW,199,0.0,0.0,91,0.00,,---,0.00,VWS V14.01,2013-08-06 11:00:00,
2013-08-06 07:05:00,57.6,55.0,29.97,SW,215,0.0,0.0,91,0.00,,---,0.00,VWS V14.01,2013-08-06 11:05:00,
2013-08-06 07:10:00,57.6,55.0,29.97,SW,214,0.0,0.0,91,0.00,,---,0.00,VWS V14.01,2013-08-06 11:10:00,
2013-08-06 07:15:00,57.6,55.0,29.97,SW,214,0.0,0.0,91,0.00,,---,0.00,VWS V14.01,2013-08-06 11:15:00,
2013-08-06 07:20:00,57.6,55.0,29.98,SW,214,0.0,0.0,91,0.00,,---,0.00,VWS V14.01,2013-08-06 11:20:00,
2013-08-06 07:25:00,57.8,55.2,29.98,SW,214,0.0,0.0,91,0.00,,---,0.00,VWS V14.01,2013-08-06 11:25:00,
2013-08-06 07:30:00,58.0,55.4,29.98,SSW,213,0.0,0.0,91,0.00,,---,0.00,VWS V14.01,2013-08-06 11:30:00,
2013-08-06 07:35:00,58.1,55.5,29.98,SW,214,0.0,0.0,91,0.00,,---,0.00,VWS V14.01,2013-08-06 11:35:00,
2013-08-06 07:40:00,58.4,55.5,29.98,SW,214,0.0,0.0,90,0.00,,---,0.00,VWS V14.01,2013-08-06 11:40:00,
2013-08-06 07:45:00,58.8,55.9,29.97,SW,214,0.0,0.0,90,0.00,,---,0.00,VWS V14.01,2013-08-06 11:45:00,
2013-08-06 07:50:00,59.2,56.0,29.97,SW,214,0.0,0.0,89,0.00,,---,0.00,VWS V14.01,2013-08-06 11:50:00,
2013-08-06 07:55:00,59.6,56.0,29.98,SW,214,0.0,0.0,88,0.00,,---,0.00,VWS V14.01,2013-08-06 11:55:00,
2013-08-06 08:00:00,60.0,56.1,29.99,SW,214,0.0,0.0,87,0.00,,---,0.00,VWS V14.01,2013-08-06 12:00:00,
2013-08-06 08:06:00,60.3,56.4,29.99,WSW,252,0.0,0.0,87,0.00,,---,0.00,VWS V14.01,2013-08-06 12:06:00,
2013-08-06 08:10:00,60.6,56.7,29.99,NNE,12,0.0,0.0,87,0.00,,---,0.00,VWS V14.01,2013-08-06 12:10:00,
2013-08-06 08:11:00,60.9,57.0,29.99,NE,35,0.0,0.0,87,0.00,,---,0.00,VWS V14.01,2013-08-06 12:11:00,
2013-08-06 08:15:00,61.6,57.4,29.99,NE,36,0.0,0.0,86,0.00,,---,0.00,VWS V14.01,2013-08-06 12:15:00,
2013-08-06 08:20:00,62.0,57.4,29.99,NE,36,0.0,0.0,85,0.00,,---,0.00,VWS V14.01,2013-08-06 12:20:00,
2013-08-06 08:21:00,62.2,57.6,29.99,ESE,120,0.0,0.0,85,0.00,,---,0.00,VWS V14.01,2013-08-06 12:21:00,
2013-08-06 08:26:00,62.9,57.7,29.99,SE,137,0.0,0.0,83,0.00,,---,0.00,VWS V14.01,2013-08-06 12:26:00,
2013-08-06 08:30:00,63.2,58.0,29.98,SSE,164,0.0,0.0,83,0.00,,---,0.00,VWS V14.01,2013-08-06 12:30:00,
2013-08-06 08:31:00,63.4,58.5,29.98,SSW,196,0.0,0.0,84,0.00,,---,0.00,VWS V14.01,2013-08-06 12:31:00,
2013-08-06 08:36:00,64.3,58.3,29.98,ESE,103,0.0,0.0,81,0.00,,---,0.00,VWS V14.01,2013-08-06 12:36:00,
2013-08-06 08:40:00,64.9,58.2,29.98,ESE,110,0.0,0.0,79,0.00,,---,0.00,VWS V14.01,2013-08-06 12:40:00,
2013-08-06 08:41:00,65.2,57.8,29.99,ESE,110,0.0,0.0,77,0.00,,---,0.00,VWS V14.01,2013-08-06 12:41:00,
2013-08-06 08:46:00,65.8,58.4,29.99,ESE,110,0.0,0.0,77,0.00,,---,0.00,VWS V14.01,2013-08-06 12:46:00,
2013-08-06 08:50:00,66.3,58.5,29.99,ESE,110,0.0,0.0,76,0.00,,---,0.00,VWS V14.01,2013-08-06 12:50:00,
2013-08-06 08:51:00,66.8,58.3,29.99,ESE,110,0.0,0.0,74,0.00,,---,0.00,VWS V14.01,2013-08-06 12:51:00,
2013-08-06 08:56:00,67.4,58.8,29.99,ESE,111,0.0,0.0,74,0.00,,---,0.00,VWS V14.01,2013-08-06 12:56:00,
2013-08-06 09:00:00,68.3,59.7,29.99,ESE,111,0.0,0.0,74,0.00,,---,0.00,VWS V14.01,2013-08-06 13:00:00,
2013-08-06 09:01:00,68.8,59.0,29.99,NNW,347,0.0,0.0,71,0.00,,---,0.00,VWS V14.01,2013-08-06 13:01:00,
2013-08-06 09:06:00,69.0,58.8,29.99,SW,230,0.0,0.0,70,0.00,,---,0.00,VWS V14.01,2013-08-06 13:06:00,
2013-08-06 09:10:00,69.2,59.4,29.99,SW,232,0.0,0.0,71,0.00,,---,0.00,VWS V14.01,2013-08-06 13:10:00,
2013-08-06 09:11:00,69.3,59.1,29.99,SW,226,0.0,0.0,70,0.00,,---,0.00,VWS V14.01,2013-08-06 13:11:00,
2013-08-06 09:16:00,69.6,59.0,29.99,SE,136,0.0,0.0,69,0.00,,---,0.00,VWS V14.01,2013-08-06 13:16:00,
2013-08-06 09:20:00,69.9,59.3,29.99,SW,229,0.0,0.0,69,0.00,,---,0.00,VWS V14.01,2013-08-06 13:20:00,
2013-08-06 09:21:00,70.2,58.3,29.99,SW,229,0.0,0.0,66,0.00,,---,0.00,VWS V14.01,2013-08-06 13:21:00,
2013-08-06 09:26:00,70.5,59.0,29.99,SW,229,0.0,0.0,67,0.00,,---,0.00,VWS V14.01,2013-08-06 13:26:00,
2013-08-06 09:30:00,70.7,59.2,29.99,WSW,254,0.0,0.0,67,0.00,,---,0.00,VWS V14.01,2013-08-06 13:30:00,
2013-08-06 09:31:00,71.0,58.7,29.99,West,261,0.0,0.0,65,0.00,,---,0.00,VWS V14.01,2013-08-06 13:31:00,
2013-08-06 09:36:00,71.1,58.8,29.99,WSW,243,0.0,0.0,65,0.00,,---,0.00,VWS V14.01,2013-08-06 13:36:00,
2013-08-06 09:40:00,71.0,58.7,29.99,North,351,0.0,0.0,65,0.00,,---,0.00,VWS V14.01,2013-08-06 13:40:00,
2013-08-06 09:41:00,71.1,59.2,30.00,North,351,0.0,0.0,66,0.00,,---,0.00,VWS V14.01,2013-08-06 13:41:00,
2013-08-06 09:46:00,71.5,60.4,30.00,NW,306,0.0,0.0,68,0.00,,---,0.00,VWS V14.01,2013-08-06 13:46:00,
2013-08-06 09:50:00,71.9,59.9,30.00,WSW,240,0.0,0.0,66,0.00,,---,0.00,VWS V14.01,2013-08-06 13:50:00,
2013-08-06 09:51:00,72.4,59.5,30.00,WSW,242,1.0,1.0,64,0.00,,---,0.00,VWS V14.01,2013-08-06 13:51:00,
2013-08-06 09:56:00,72.2,58.0,29.99,WNW,286,0.0,1.0,61,0.00,,---,0.00,VWS V14.01,2013-08-06 13:56:00,
2013-08-06 10:00:00,72.0,58.3,29.99,NNW,346,0.0,1.0,62,0.00,,---,0.00,VWS V14.01,2013-08-06 14:00:00,
2013-08-06 10:01:00,72.2,59.8,29.99,NNE,16,0.0,0.0,65,0.00,,---,0.00,VWS V14.01,2013-08-06 14:01:00,
2013-08-06 10:06:00,72.5,59.2,30.00,ESE,121,0.0,2.0,63,0.00,,---,0.00,VWS V14.01,2013-08-06 14:06:00,
2013-08-06 10:10:00,72.5,59.2,30.00,NNW,346,0.0,2.0,63,0.00,,---,0.00,VWS V14.01,2013-08-06 14:10:00,
2013-08-06 10:11:00,72.6,57.0,30.00,SSW,212,2.0,3.0,58,0.00,,---,0.00,VWS V14.01,2013-08-06 14:11:00,
2013-08-06 10:16:00,72.5,57.8,30.00,WSW,248,1.0,3.0,60,0.00,,---,0.00,VWS V14.01,2013-08-06 14:16:00,
2013-08-06 10:20:00,72.6,57.9,30.00,South,172,0.0,3.0,60,0.00,,---,0.00,VWS V14.01,2013-08-06 14:20:00,
2013-08-06 10:21:00,72.6,57.5,30.00,SE,134,2.0,4.0,59,0.00,,---,0.00,VWS V14.01,2013-08-06 14:21:00,
2013-08-06 10:26:00,71.9,57.3,30.00,SE,134,2.0,5.0,60,0.00,,---,0.00,VWS V14.01,2013-08-06 14:26:00,
2013-08-06 10:30:00,71.9,57.7,30.00,SSE,165,1.0,5.0,61,0.00,,---,0.00,VWS V14.01,2013-08-06 14:30:00,
2013-08-06 10:31:00,72.2,58.0,30.00,South,178,4.0,6.0,61,0.00,,---,0.00,VWS V14.01,2013-08-06 14:31:00,
2013-08-06 10:36:00,72.6,57.9,30.00,SE,126,1.0,6.0,60,0.00,,---,0.00,VWS V14.01,2013-08-06 14:36:00,
2013-08-06 10:40:00,72.7,58.0,30.00,ESE,123,0.0,6.0,60,0.00,,---,0.00,VWS V14.01,2013-08-06 14:40:00,
2013-08-06 10:41:00,72.7,57.1,30.00,ESE,103,0.0,5.0,58,0.00,,---,0.00,VWS V14.01,2013-08-06 14:41:00,
2013-08-06 10:46:00,72.3,58.1,30.00,SSW,203,1.0,5.0,61,0.00,,---,0.00,VWS V14.01,2013-08-06 14:46:00,
2013-08-06 10:50:00,72.5,58.3,30.00,South,180,0.0,5.0,61,0.00,,---,0.00,VWS V14.01,2013-08-06 14:50:00,
2013-08-06 10:51:00,72.7,57.6,30.00,SE,125,0.0,4.0,59,0.00,,---,0.00,VWS V14.01,2013-08-06 14:51:00,
2013-08-06 10:56:00,73.2,58.5,30.00,SSE,154,5.0,6.0,60,0.00,,---,0.00,VWS V14.01,2013-08-06 14:56:00,
2013-08-06 11:00:00,73.1,58.9,30.00,SE,136,4.0,8.0,61,0.00,,---,0.00,VWS V14.01,2013-08-06 15:00:00,
2013-08-06 11:01:00,72.7,58.0,29.99,SSE,161,4.0,7.0,60,0.00,,---,0.00,VWS V14.01,2013-08-06 15:01:00,
2013-08-06 11:06:00,72.7,58.0,29.99,SSW,207,3.0,7.0,60,0.00,,---,0.00,VWS V14.01,2013-08-06 15:06:00,
2013-08-06 11:10:00,72.7,57.6,30.00,SSW,207,0.0,7.0,59,0.00,,---,0.00,VWS V14.01,2013-08-06 15:10:00,
2013-08-06 11:11:00,72.9,58.2,30.00,SW,214,0.0,3.0,60,0.00,,---,0.00,VWS V14.01,2013-08-06 15:11:00,
2013-08-06 11:16:00,74.1,59.3,29.99,ESE,116,0.0,3.0,60,0.00,,---,0.00,VWS V14.01,2013-08-06 15:16:00,
2013-08-06 11:20:00,74.4,58.7,29.99,SE,142,0.0,3.0,58,0.00,,---,0.00,VWS V14.01,2013-08-06 15:20:00,
2013-08-06 11:21:00,74.9,58.7,29.99,NE,35,0.0,1.0,57,0.00,,---,0.00,VWS V14.01,2013-08-06 15:21:00,
2013-08-06 11:26:00,74.8,57.6,29.99,NW,317,1.0,4.0,55,0.00,,---,0.00,VWS V14.01,2013-08-06 15:26:00,
2013-08-06 11:30:00,74.7,57.5,29.99,WNW,288,0.0,4.0,55,0.00,,---,0.00,VWS V14.01,2013-08-06 15:30:00,
2013-08-06 11:31:00,75.0,57.8,29.99,WSW,240,1.0,2.0,55,0.00,,---,0.00,VWS V14.01,2013-08-06 15:31:00,
2013-08-06 11:36:00,75.1,57.8,29.99,SSW,198,1.0,3.0,55,0.00,,---,0.00,VWS V14.01,2013-08-06 15:36:00,
2013-08-06 11:40:00,75.2,58.4,29.99,SE,132,0.0,3.0,56,0.00,,---,0.00,VWS V14.01,2013-08-06 15:40:00,
2013-08-06 11:42:00,75.3,58.5,29.99,ESE,114,1.0,2.0,56,0.00,,---,0.00,VWS V14.01,2013-08-06 15:42:00,
2013-08-06 11:47:00,75.8,57.5,29.99,SE,135,0.0,2.0,53,0.00,,---,0.00,VWS V14.01,2013-08-06 15:47:00,
2013-08-06 11:50:00,75.9,59.1,29.99,ENE,76,0.0,2.0,56,0.00,,---,0.00,VWS V14.01,2013-08-06 15:50:00,
2013-08-06 11:52:00,75.7,56.3,29.98,NW,323,2.0,2.0,51,0.00,,---,0.00,VWS V14.01,2013-08-06 15:52:00,
2013-08-06 11:57:00,75.7,57.9,29.99,WSW,248,0.0,2.0,54,0.00,,---,0.00,VWS V14.01,2013-08-06 15:57:00,
2013-08-06 12:00:00,76.2,58.4,29.99,West,260,0.0,2.0,54,0.00,,---,0.00,VWS V14.01,2013-08-06 16:00:00,
2013-08-06 12:02:00,77.0,60.1,29.98,East,90,0.0,2.0,56,0.00,,---,0.00,VWS V14.01,2013-08-06 16:02:00,
2013-08-06 12:07:00,76.8,59.4,29.98,WNW,294,3.0,4.0,55,0.00,,---,0.00,VWS V14.01,2013-08-06 16:07:00,
2013-08-06 12:10:00,76.6,58.2,29.98,NW,304,0.0,5.0,53,0.00,,---,0.00,VWS V14.01,2013-08-06 16:10:00,
2013-08-06 12:12:00,76.5,58.1,29.98,NW,313,0.0,3.0,53,0.00,,---,0.00,VWS V14.01,2013-08-06 16:12:00,
2013-08-06 12:17:00,76.3,58.5,29.98,NNE,25,2.0,5.0,54,0.00,,---,0.00,VWS V14.01,2013-08-06 16:17:00,
2013-08-06 12:20:00,76.2,57.8,29.98,NNE,29,3.0,5.0,53,0.00,,---,0.00,VWS V14.01,2013-08-06 16:20:00,
2013-08-06 12:22:00,76.2,57.8,29.98,NNW,336,5.0,5.0,53,0.00,,---,0.00,VWS V14.01,2013-08-06 16:22:00,
2013-08-06 12:27:00,76.0,58.2,29.98,NNW,334,0.0,5.0,54,0.00,,---,0.00,VWS V14.01,2013-08-06 16:27:00,
2013-08-06 12:30:00,76.1,58.8,29.98,NNW,332,1.0,5.0,55,0.00,,---,0.00,VWS V14.01,2013-08-06 16:30:00,
2013-08-06 12:32:00,76.7,59.8,29.97,SSE,157,0.0,4.0,56,0.00,,---,0.00,VWS V14.01,2013-08-06 16:32:00,
2013-08-06 12:37:00,76.7,57.8,29.97,SSE,157,0.0,7.0,52,0.00,,---,0.00,VWS V14.01,2013-08-06 16:37:00,
2013-08-06 12:40:00,76.8,58.4,29.98,SW,217,0.0,7.0,53,0.00,,---,0.00,VWS V14.01,2013-08-06 16:40:00,
2013-08-06 12:42:00,76.9,58.5,29.97,NNE,24,4.0,7.0,53,0.00,,---,0.00,VWS V14.01,2013-08-06 16:42:00,
2013-08-06 12:47:00,76.4,58.5,29.98,NNW,348,3.0,7.0,54,0.00,,---,0.00,VWS V14.01,2013-08-06 16:47:00,
2013-08-06 12:50:00,76.3,58.5,29.98,NNW,342,0.0,7.0,54,0.00,,---,0.00,VWS V14.01,2013-08-06 16:50:00,
2013-08-06 12:52:00,76.3,57.9,29.97,WSW,240,0.0,3.0,53,0.00,,---,0.00,VWS V14.01,2013-08-06 16:52:00,
2013-08-06 12:57:00,77.4,61.0,29.97,NNW,340,0.0,3.0,57,0.00,,---,0.00,VWS V14.01,2013-08-06 16:57:00,
2013-08-06 13:00:00,77.6,59.1,29.97,SE,135,4.0,4.0,53,0.00,,---,0.00,VWS V14.01,2013-08-06 17:00:00,
2013-08-06 13:02:00,77.7,59.8,29.97,NW,323,0.0,4.0,54,0.00,,---,0.00,VWS V14.01,2013-08-06 17:02:00,
2013-08-06 13:07:00,78.3,60.3,29.97,NNW,340,0.0,4.0,54,0.00,,---,0.00,VWS V14.01,2013-08-06 17:07:00,
2013-08-06 13:10:00,78.3,59.2,29.97,NNE,19,0.0,5.0,52,0.00,,---,0.00,VWS V14.01,2013-08-06 17:10:00,
2013-08-06 13:12:00,78.1,59.6,29.97,NNW,342,2.0,3.0,53,0.00,,---,0.00,VWS V14.01,2013-08-06 17:12:00,
2013-08-06 13:17:00,78.1,61.1,29.97,NNE,12,0.0,3.0,56,0.00,,---,0.00,VWS V14.01,2013-08-06 17:17:00,
2013-08-06 13:20:00,78.2,59.7,29.97,WNW,300,1.0,3.0,53,0.00,,---,0.00,VWS V14.01,2013-08-06 17:20:00,
2013-08-06 13:22:00,78.0,59.0,29.97,NNE,24,3.0,5.0,52,0.00,,---,0.00,VWS V14.01,2013-08-06 17:22:00,
2013-08-06 13:27:00,77.9,58.9,29.97,ENE,62,3.0,5.0,52,0.00,,---,0.00,VWS V14.01,2013-08-06 17:27:00,
2013-08-06 13:30:00,78.0,59.0,29.97,NNE,23,4.0,5.0,52,0.00,,---,0.00,VWS V14.01,2013-08-06 17:30:00,
2013-08-06 13:32:00,78.2,59.7,29.97,ESE,123,1.0,4.0,53,0.00,,---,0.00,VWS V14.01,2013-08-06 17:32:00,
2013-08-06 13:37:00,78.2,60.2,29.97,ESE,123,0.0,5.0,54,0.00,,---,0.00,VWS V14.01,2013-08-06 17:37:00,
2013-08-06 13:40:00,78.3,58.7,29.97,ESE,115,0.0,5.0,51,0.00,,---,0.00,VWS V14.01,2013-08-06 17:40:00,
2013-08-06 13:42:00,78.5,58.3,29.97,South,171,0.0,6.0,50,0.00,,---,0.00,VWS V14.01,2013-08-06 17:42:00,
2013-08-06 13:47:00,78.9,59.2,29.96,SE,140,6.0,6.0,51,0.00,,---,0.00,VWS V14.01,2013-08-06 17:47:00,
2013-08-06 13:50:00,78.9,58.7,29.96,South,188,3.0,7.0,50,0.00,,---,0.00,VWS V14.01,2013-08-06 17:50:00,
2013-08-06 13:52:00,78.8,58.0,29.96,SE,144,4.0,8.0,49,0.00,,---,0.00,VWS V14.01,2013-08-06 17:52:00,
2013-08-06 13:57:00,78.6,59.5,29.96,South,186,0.0,8.0,52,0.00,,---,0.00,VWS V14.01,2013-08-06 17:57:00,
2013-08-06 14:00:00,78.8,60.2,29.96,East,82,0.0,8.0,53,0.00,,---,0.00,VWS V14.01,2013-08-06 18:00:00,
2013-08-06 14:02:00,78.8,59.2,29.96,NNE,31,2.0,5.0,51,0.00,,---,0.00,VWS V14.01,2013-08-06 18:02:00,
2013-08-06 14:07:00,78.3,59.2,29.97,NNW,344,1.0,6.0,52,0.00,,---,0.00,VWS V14.01,2013-08-06 18:07:00,
2013-08-06 14:10:00,78.3,58.2,29.97,West,273,0.0,6.0,50,0.00,,---,0.00,VWS V14.01,2013-08-06 18:10:00,
2013-08-06 14:12:00,78.8,59.2,29.96,WNW,303,1.0,3.0,51,0.00,,---,0.00,VWS V14.01,2013-08-06 18:12:00,
2013-08-06 14:17:00,79.5,61.4,29.96,WSW,244,0.0,3.0,54,0.00,,---,0.00,VWS V14.01,2013-08-06 18:17:00,
2013-08-06 14:20:00,79.6,60.4,29.96,SE,141,4.0,8.0,52,0.00,,---,0.00,VWS V14.01,2013-08-06 18:20:00,
2013-08-06 14:22:00,79.5,58.7,29.96,SSE,148,0.0,9.0,49,0.00,,---,0.00,VWS V14.01,2013-08-06 18:22:00,
2013-08-06 14:27:00,79.5,58.7,29.95,SSE,149,0.0,9.0,49,0.00,,---,0.00,VWS V14.01,2013-08-06 18:27:00,
2013-08-06 14:30:00,79.5,58.7,29.95,SSE,149,0.0,9.0,49,0.00,,---,0.00,VWS V14.01,2013-08-06 18:30:00,
2013-08-06 14:32:00,79.8,59.5,29.94,ESE,103,1.0,1.0,50,0.00,,---,0.00,VWS V14.01,2013-08-06 18:32:00,
2013-08-06 14:38:00,79.9,58.5,29.95,ESE,114,0.0,4.0,48,0.00,,---,0.00,VWS V14.01,2013-08-06 18:38:00,
2013-08-06 14:40:00,79.9,59.6,29.95,East,92,0.0,4.0,50,0.00,,---,0.00,VWS V14.01,2013-08-06 18:40:00,
2013-08-06 14:42:00,80.1,58.7,29.95,SW,219,0.0,2.0,48,0.00,,---,0.00,VWS V14.01,2013-08-06 18:42:00,
2013-08-06 14:48:00,80.8,59.3,29.95,NNW,347,0.0,2.0,48,0.00,,---,0.00,VWS V14.01,2013-08-06 18:48:00,
2013-08-06 14:50:00,80.9,60.0,29.95,WSW,248,1.0,2.0,49,0.00,,---,0.00,VWS V14.01,2013-08-06 18:50:00,
2013-08-06 14:53:00,81.6,61.2,29.95,WSW,250,0.0,2.0,50,0.00,,---,0.00,VWS V14.01,2013-08-06 18:53:00,
2013-08-06 14:58:00,81.9,59.7,29.95,WNW,290,1.0,3.0,47,0.00,,---,0.00,VWS V14.01,2013-08-06 18:58:00,
2013-08-06 15:00:00,81.9,59.7,29.95,NNE,12,0.0,3.0,47,0.00,,---,0.00,VWS V14.01,2013-08-06 19:00:00,
2013-08-06 15:03:00,82.1,61.1,29.95,North,350,0.0,1.0,49,0.00,,---,0.00,VWS V14.01,2013-08-06 19:03:00,
2013-08-06 15:08:00,82.3,59.5,29.95,SSE,154,7.0,7.0,46,0.00,,---,0.00,VWS V14.01,2013-08-06 19:08:00,
2013-08-06 15:10:00,82.1,59.3,29.95,SSE,150,4.0,7.0,46,0.00,,---,0.00,VWS V14.01,2013-08-06 19:10:00,
2013-08-06 15:13:00,81.3,58.6,29.95,WSW,254,1.0,4.0,46,0.00,,---,0.00,VWS V14.01,2013-08-06 19:13:00,
2013-08-06 15:18:00,81.9,57.9,29.95,SSW,202,0.0,4.0,44,0.00,,---,0.00,VWS V14.01,2013-08-06 19:18:00,
2013-08-06 15:20:00,82.0,59.8,29.95,SSW,200,0.0,4.0,47,0.00,,---,0.00,VWS V14.01,2013-08-06 19:20:00,
2013-08-06 15:23:00,82.7,59.2,29.96,SSE,155,1.0,1.0,45,0.00,,---,0.00,VWS V14.01,2013-08-06 19:23:00,
2013-08-06 15:28:00,82.3,59.5,29.96,NE,35,0.0,2.0,46,0.00,,---,0.00,VWS V14.01,2013-08-06 19:28:00,
2013-08-06 15:30:00,82.3,58.2,29.96,NE,35,0.0,2.0,44,0.00,,---,0.00,VWS V14.01,2013-08-06 19:30:00,
2013-08-06 15:33:00,82.1,58.0,29.96,SW,230,0.0,1.0,44,0.00,,---,0.00,VWS V14.01,2013-08-06 19:33:00,
2013-08-06 15:38:00,82.2,59.4,29.96,North,351,1.0,2.0,46,0.00,,---,0.00,VWS V14.01,2013-08-06 19:38:00,
2013-08-06 15:40:00,82.1,59.3,29.96,NW,306,2.0,4.0,46,0.00,,---,0.00,VWS V14.01,2013-08-06 19:40:00,
2013-08-06 15:43:00,80.9,60.0,29.96,NNE,15,0.0,5.0,49,0.00,,---,0.00,VWS V14.01,2013-08-06 19:43:00,
2013-08-06 15:48:00,81.4,61.0,29.96,WSW,239,0.0,5.0,50,0.00,,---,0.00,VWS V14.01,2013-08-06 19:48:00,
2013-08-06 15:50:00,81.5,61.1,29.96,South,180,0.0,5.0,50,0.00,,---,0.00,VWS V14.01,2013-08-06 19:50:00,
2013-08-06 15:53:00,81.1,59.0,29.95,NNE,31,2.0,6.0,47,0.00,,---,0.00,VWS V14.01,2013-08-06 19:53:00,
2013-08-06 15:58:00,80.9,61.1,29.95,WSW,250,0.0,6.0,51,0.00,,---,0.00,VWS V14.01,2013-08-06 19:58:00,
2013-08-06 16:00:00,81.0,61.2,29.95,West,277,1.0,6.0,51,0.00,,---,0.00,VWS V14.01,2013-08-06 20:00:00,
2013-08-06 16:03:00,80.8,59.3,29.94,NNW,342,1.0,5.0,48,0.00,,---,0.00,VWS V14.01,2013-08-06 20:03:00,
2013-08-06 16:08:00,80.8,61.0,29.94,NNE,13,0.0,5.0,51,0.00,,---,0.00,VWS V14.01,2013-08-06 20:08:00,
2013-08-06 16:10:00,80.8,58.7,29.94,NNE,13,0.0,5.0,47,0.00,,---,0.00,VWS V14.01,2013-08-06 20:10:00,
2013-08-06 16:13:00,81.4,61.0,29.94,NW,309,1.0,2.0,50,0.00,,---,0.00,VWS V14.01,2013-08-06 20:13:00,
2013-08-06 16:18:00,82.0,61.5,29.94,NNE,16,0.0,2.0,50,0.00,,---,0.00,VWS V14.01,2013-08-06 20:18:00,
2013-08-06 16:20:00,82.0,61.5,29.94,East,79,1.0,2.0,50,0.00,,---,0.00,VWS V14.01,2013-08-06 20:20:00,
2013-08-06 16:23:00,82.9,60.0,29.94,NNW,327,0.0,1.0,46,0.00,,---,0.00,VWS V14.01,2013-08-06 20:23:00,
2013-08-06 16:28:00,83.1,60.8,29.94,SSE,157,0.0,6.0,47,0.00,,---,0.00,VWS V14.01,2013-08-06 20:28:00,
2013-08-06 16:30:00,83.1,60.8,29.94,South,175,0.0,6.0,47,0.00,,---,0.00,VWS V14.01,2013-08-06 20:30:00,
2013-08-06 16:32:00,82.8,60.5,29.94,SW,219,0.0,3.0,47,0.00,,---,0.00,VWS V14.01,2013-08-06 20:32:00,
2013-08-06 16:33:00,82.9,62.4,29.94,WSW,249,0.0,3.0,50,0.00,,---,0.00,VWS V14.01,2013-08-06 20:33:00,
2013-08-06 16:38:00,82.9,60.6,29.93,SSW,206,4.0,4.0,47,0.00,,---,0.00,VWS V14.01,2013-08-06 20:38:00,
2013-08-06 16:40:00,82.9,60.6,29.93,SSW,206,4.0,5.0,47,0.00,,---,0.00,VWS V14.01,2013-08-06 20:40:00,
2013-08-06 16:43:00,81.9,59.7,29.94,WSW,237,1.0,7.0,47,0.00,,---,0.00,VWS V14.01,2013-08-06 20:43:00,
2013-08-06 16:49:00,82.3,60.7,29.93,SE,141,0.0,0.0,48,0.00,,---,0.00,VWS V14.01,2013-08-06 20:49:00,
2013-08-06 16:50:00,82.3,61.2,29.93,ESE,117,0.0,7.0,49,0.00,,---,0.00,VWS V14.01,2013-08-06 20:50:00,
2013-08-06 16:54:00,82.7,59.2,29.93,South,184,0.0,2.0,45,0.00,,---,0.00,VWS V14.01,2013-08-06 20:54:00,
2013-08-06 16:59:00,82.7,61.0,29.93,East,98,0.0,0.0,48,0.00,,---,0.00,VWS V14.01,2013-08-06 20:59:00,
2013-08-06 17:00:00,82.7,61.0,29.93,East,98,0.0,2.0,48,0.00,,---,0.00,VWS V14.01,2013-08-06 21:00:00,
2013-08-06 17:04:00,83.1,60.2,29.93,NE,47,0.0,1.0,46,0.00,,---,0.00,VWS V14.01,2013-08-06 21:04:00,
2013-08-06 17:09:00,83.0,61.3,29.93,SSW,210,2.0,2.0,48,0.00,,---,0.00,VWS V14.01,2013-08-06 21:09:00,
2013-08-06 17:10:00,83.1,61.4,29.93,SW,215,2.0,5.0,48,0.00,,---,0.00,VWS V14.01,2013-08-06 21:10:00,
2013-08-06 17:14:00,82.5,60.3,29.93,WNW,288,0.0,5.0,47,0.00,,---,0.00,VWS V14.01,2013-08-06 21:14:00,
2013-08-06 17:19:00,82.4,59.6,29.93,SE,136,0.0,0.0,46,0.00,,---,0.00,VWS V14.01,2013-08-06 21:19:00,
2013-08-06 17:20:00,82.4,59.6,29.93,SE,136,0.0,5.0,46,0.00,,---,0.00,VWS V14.01,2013-08-06 21:20:00,
2013-08-06 17:24:00,82.4,59.6,29.93,NNW,348,0.0,0.0,46,0.00,,---,0.00,VWS V14.01,2013-08-06 21:24:00,
2013-08-06 17:29:00,82.7,59.8,29.93,SSW,209,0.0,0.0,46,0.00,,---,0.00,VWS V14.01,2013-08-06 21:29:00,
2013-08-06 17:30:00,82.7,59.2,29.93,South,173,0.0,1.0,45,0.00,,---,0.00,VWS V14.01,2013-08-06 21:30:00,
2013-08-06 17:34:00,83.0,60.7,29.93,SW,215,2.0,4.0,47,0.00,,---,0.00,VWS V14.01,2013-08-06 21:34:00,
2013-08-06 17:39:00,83.1,59.6,29.93,SE,145,0.0,0.0,45,0.00,,---,0.00,VWS V14.01,2013-08-06 21:39:00,
2013-08-06 17:40:00,83.1,59.6,29.93,SE,146,0.0,4.0,45,0.00,,---,0.00,VWS V14.01,2013-08-06 21:40:00,
2013-08-06 17:44:00,83.9,60.3,29.93,NNW,340,0.0,0.0,45,0.00,,---,0.00,VWS V14.01,2013-08-06 21:44:00,
2013-08-06 17:49:00,83.6,60.0,29.93,NW,311,0.0,0.0,45,0.00,,---,0.00,VWS V14.01,2013-08-06 21:49:00,
2013-08-06 17:50:00,83.7,60.1,29.93,NNW,335,0.0,0.0,45,0.00,,---,0.00,VWS V14.01,2013-08-06 21:50:00,
2013-08-06 17:54:00,82.9,60.6,29.93,NW,314,0.0,5.0,47,0.00,,---,0.00,VWS V14.01,2013-08-06 21:54:00,
2013-08-06 17:59:00,82.8,59.9,29.93,West,267,0.0,0.0,46,0.00,,---,0.00,VWS V14.01,2013-08-06 21:59:00,
2013-08-06 18:00:00,82.9,59.4,29.93,West,272,0.0,5.0,45,0.00,,---,0.00,VWS V14.01,2013-08-06 22:00:00,
2013-08-06 18:04:00,83.1,61.4,29.93,WSW,256,0.0,1.0,48,0.00,,---,0.00,VWS V14.01,2013-08-06 22:04:00,
2013-08-06 18:09:00,83.0,61.9,29.93,WSW,246,0.0,1.0,49,0.00,,---,0.00,VWS V14.01,2013-08-06 22:09:00,
2013-08-06 18:10:00,83.0,61.9,29.93,SSW,204,0.0,2.0,49,0.00,,---,0.00,VWS V14.01,2013-08-06 22:10:00,
2013-08-06 18:14:00,83.3,61.6,29.93,SSW,198,1.0,1.0,48,0.00,,---,0.00,VWS V14.01,2013-08-06 22:14:00,
2013-08-06 18:19:00,83.3,62.7,29.93,WSW,241,0.0,0.0,50,0.00,,---,0.00,VWS V14.01,2013-08-06 22:19:00,
2013-08-06 18:20:00,83.3,62.2,29.93,WSW,253,0.0,2.0,49,0.00,,---,0.00,VWS V14.01,2013-08-06 22:20:00,
2013-08-06 18:24:00,82.5,60.8,29.93,NW,323,0.0,3.0,48,0.00,,---,0.00,VWS V14.01,2013-08-06 22:24:00,
2013-08-06 18:29:00,82.3,61.2,29.93,West,279,0.0,1.0,49,0.00,,---,0.00,VWS V14.01,2013-08-06 22:29:00,
2013-08-06 18:30:00,82.3,61.2,29.93,WSW,253,1.0,3.0,49,0.00,,---,0.00,VWS V14.01,2013-08-06 22:30:00,
2013-08-06 18:34:00,82.5,61.4,29.93,WSW,256,0.0,1.0,49,0.00,,---,0.00,VWS V14.01,2013-08-06 22:34:00,
2013-08-06 18:39:00,82.5,60.8,29.93,NW,317,0.0,1.0,48,0.00,,---,0.00,VWS V14.01,2013-08-06 22:39:00,
2013-08-06 18:40:00,82.5,60.8,29.93,WSW,246,1.0,1.0,48,0.00,,---,0.00,VWS V14.01,2013-08-06 22:40:00,
2013-08-06 18:44:00,82.8,60.5,29.93,NE,46,0.0,1.0,47,0.00,,---,0.00,VWS V14.01,2013-08-06 22:44:00,
2013-08-06 18:49:00,82.3,61.2,29.93,SW,234,0.0,0.0,49,0.00,,---,0.00,VWS V14.01,2013-08-06 22:49:00,
2013-08-06 18:50:00,82.5,60.8,29.93,SW,223,0.0,1.0,48,0.00,,---,0.00,VWS V14.01,2013-08-06 22:50:00,
2013-08-06 18:54:00,82.3,60.7,29.93,NNW,346,0.0,1.0,48,0.00,,---,0.00,VWS V14.01,2013-08-06 22:54:00,
2013-08-06 18:59:00,82.4,61.9,29.93,West,276,0.0,1.0,50,0.00,,---,0.00,VWS V14.01,2013-08-06 22:59:00,
2013-08-06 19:00:00,82.4,62.5,29.93,SSW,205,0.0,1.0,51,0.00,,---,0.00,VWS V14.01,2013-08-06 23:00:00,
2013-08-06 19:04:00,82.3,61.8,29.93,SW,215,0.0,1.0,50,0.00,,---,0.00,VWS V14.01,2013-08-06 23:04:00,
2013-08-06 19:09:00,82.2,61.7,29.93,ENE,76,0.0,1.0,50,0.00,,---,0.00,VWS V14.01,2013-08-06 23:09:00,
2013-08-06 19:10:00,82.3,62.4,29.93,WSW,250,0.0,1.0,51,0.00,,---,0.00,VWS V14.01,2013-08-06 23:10:00,
2013-08-06 19:14:00,81.8,61.4,29.93,SSW,210,0.0,1.0,50,0.00,,---,0.00,VWS V14.01,2013-08-06 23:14:00,
2013-08-06 19:19:00,81.7,61.8,29.93,NW,319,0.0,1.0,51,0.00,,---,0.00,VWS V14.01,2013-08-06 23:19:00,
2013-08-06 19:20:00,81.8,62.5,29.93,WSW,252,0.0,1.0,52,0.00,,---,0.00,VWS V14.01,2013-08-06 23:20:00,
2013-08-06 19:24:00,81.7,62.9,29.93,West,263,0.0,1.0,53,0.00,,---,0.00,VWS V14.01,2013-08-06 23:24:00,
2013-08-06 19:30:00,81.3,62.0,29.93,WSW,253,0.0,0.0,52,0.00,,---,0.00,VWS V14.01,2013-08-06 23:30:00,
2013-08-06 19:35:00,80.9,62.2,29.93,WSW,249,0.0,0.0,53,0.00,,---,0.00,VWS V14.01,2013-08-06 23:35:00,
2013-08-06 19:40:00,80.4,63.3,29.93,WSW,241,0.0,0.0,56,0.00,,---,0.00,VWS V14.01,2013-08-06 23:40:00,
2013-08-06 19:45:00,79.7,62.6,29.93,WSW,244,0.0,0.0,56,0.00,,---,0.00,VWS V14.01,2013-08-06 23:45:00,
2013-08-06 19:50:00,79.2,63.2,29.93,WSW,247,0.0,0.0,58,0.00,,---,0.00,VWS V14.01,2013-08-06 23:50:00,
2013-08-06 19:55:00,78.8,63.3,29.93,WSW,248,0.0,0.0,59,0.00,,---,0.00,VWS V14.01,2013-08-06 23:55:00,
2013-08-06 20:00:00,78.1,63.1,29.93,WSW,248,0.0,0.0,60,0.00,,---,0.00,VWS V14.01,2013-08-07 00:00:00,
2013-08-06 20:05:00,77.3,63.3,29.94,WSW,247,0.0,0.0,62,0.00,,---,0.00,VWS V14.01,2013-08-07 00:05:00,
2013-08-06 20:10:00,76.8,62.8,29.94,WSW,250,0.0,0.0,62,0.00,,---,0.00,VWS V14.01,2013-08-07 00:10:00,
2013-08-06 20:15:00,76.4,63.3,29.94,WSW,249,0.0,0.0,64,0.00,,---,0.00,VWS V14.01,2013-08-07 00:15:00,
2013-08-06 20:20:00,75.9,62.9,29.94,WSW,249,0.0,0.0,64,0.00,,---,0.00,VWS V14.01,2013-08-07 00:20:00,
2013-08-06 20:25:00,75.5,62.5,29.94,WSW,256,0.0,0.0,64,0.00,,---,0.00,VWS V14.01,2013-08-07 00:25:00,
2013-08-06 20:30:00,75.2,62.6,29.93,WSW,256,0.0,0.0,65,0.00,,---,0.00,VWS V14.01,2013-08-07 00:30:00,
2013-08-06 20:35:00,74.9,61.9,29.93,WSW,256,0.0,0.0,64,0.00,,---,0.00,VWS V14.01,2013-08-07 00:35:00,
2013-08-06 20:40:00,74.6,62.9,29.93,WSW,256,0.0,0.0,67,0.00,,---,0.00,VWS V14.01,2013-08-07 00:40:00,
2013-08-06 20:45:00,74.4,63.6,29.93,ESE,121,0.0,0.0,69,0.00,,---,0.00,VWS V14.01,2013-08-07 00:45:00,
2013-08-06 20:50:00,74.2,63.4,29.93,ESE,121,0.0,0.0,69,0.00,,---,0.00,VWS V14.01,2013-08-07 00:50:00,
2013-08-06 20:55:00,73.7,63.3,29.94,ESE,121,0.0,0.0,70,0.00,,---,0.00,VWS V14.01,2013-08-07 00:55:00,
2013-08-06 21:00:00,72.9,63.8,29.94,WSW,241,0.0,0.0,73,0.00,,---,0.00,VWS V14.01,2013-08-07 01:00:00,
2013-08-06 21:05:00,72.4,63.7,29.94,South,171,1.0,4.0,74,0.00,,---,0.00,VWS V14.01,2013-08-07 01:05:00,
2013-08-06 21:10:00,73.1,63.5,29.94,ENE,74,0.0,1.0,72,0.00,,---,0.00,VWS V14.01,2013-08-07 01:10:00,
2013-08-06 21:15:00,73.7,63.3,29.94,SSE,150,1.0,4.0,70,0.00,,---,0.00,VWS V14.01,2013-08-07 01:15:00,
2013-08-06 21:20:00,73.9,63.5,29.94,SE,142,2.0,4.0,70,0.00,,---,0.00,VWS V14.01,2013-08-07 01:20:00,
2013-08-06 21:25:00,73.8,63.0,29.94,SE,142,1.0,4.0,69,0.00,,---,0.00,VWS V14.01,2013-08-07 01:25:00,
2013-08-06 21:30:00,73.7,62.9,29.94,SE,140,5.0,6.0,69,0.00,,---,0.00,VWS V14.01,2013-08-07 01:30:00,
2013-08-06 21:35:00,73.6,62.8,29.94,SSE,153,1.0,9.0,69,0.00,,---,0.00,VWS V14.01,2013-08-07 01:35:00,
2013-08-06 21:40:00,73.5,62.7,29.94,ESE,123,5.0,5.0,69,0.00,,---,0.00,VWS V14.01,2013-08-07 01:40:00,
2013-08-06 21:45:00,73.4,62.6,29.94,SE,142,0.0,8.0,69,0.00,,---,0.00,VWS V14.01,2013-08-07 01:45:00,
2013-08-06 21:50:00,73.4,62.6,29.94,South,188,1.0,11.0,69,0.00,,---,0.00,VWS V14.01,2013-08-07 01:50:00,
2013-08-06 21:55:00,73.4,62.6,29.94,SE,135,1.0,11.0,69,0.00,,---,0.00,VWS V14.01,2013-08-07 01:55:00,
2013-08-06 22:00:00,73.3,62.5,29.94,SSE,167,6.0,7.0,69,0.00,,---,0.00,VWS V14.01,2013-08-07 02:00:00,
2013-08-06 22:05:00,73.2,62.4,29.94,SSE,166,6.0,9.0,69,0.00,,---,0.00,VWS V14.01,2013-08-07 02:05:00,
2013-08-06 22:10:00,73.1,62.3,29.94,SSE,153,8.0,9.0,69,0.00,,---,0.00,VWS V14.01,2013-08-07 02:10:00,
2013-08-06 22:15:00,72.9,62.5,29.94,SSE,153,7.0,9.0,70,0.00,,---,0.00,VWS V14.01,2013-08-07 02:15:00,
2013-08-06 22:20:00,72.7,62.4,29.94,SE,130,1.0,5.0,70,0.00,,---,0.00,VWS V14.01,2013-08-07 02:20:00,
2013-08-06 22:25:00,72.6,62.7,29.94,SE,130,2.0,8.0,71,0.00,,---,0.00,VWS V14.01,2013-08-07 02:25:00,
2013-08-06 22:26:00,72.6,62.7,29.94,East,92,8.0,8.0,71,0.00,,---,0.00,VWS V14.01,2013-08-07 02:26:00,
2013-08-06 22:30:00,72.5,62.6,29.94,SE,137,5.0,8.0,71,0.00,,---,0.00,VWS V14.01,2013-08-07 02:30:00,
2013-08-06 22:31:00,72.5,62.6,29.95,ESE,114,7.0,7.0,71,0.00,,---,0.00,VWS V14.01,2013-08-07 02:31:00,
2013-08-06 22:36:00,72.4,62.5,29.94,ESE,112,1.0,11.0,71,0.00,,---,0.00,VWS V14.01,2013-08-07 02:36:00,
2013-08-06 22:40:00,72.3,62.4,29.94,SE,146,2.0,11.0,71,0.00,,---,0.00,VWS V14.01,2013-08-07 02:40:00,
2013-08-06 22:41:00,72.3,62.4,29.94,SSE,160,0.0,7.0,71,0.00,,---,0.00,VWS V14.01,2013-08-07 02:41:00,
2013-08-06 22:46:00,72.2,62.3,29.94,SSE,167,1.0,7.0,71,0.00,,---,0.00,VWS V14.01,2013-08-07 02:46:00,
2013-08-06 22:50:00,72.1,62.2,29.94,SSE,155,0.0,7.0,71,0.00,,---,0.00,VWS V14.01,2013-08-07 02:50:00,
2013-08-06 22:51:00,72.0,62.5,29.94,South,178,1.0,5.0,72,0.00,,---,0.00,VWS V14.01,2013-08-07 02:51:00,
2013-08-06 22:56:00,71.8,62.3,29.94,SE,146,4.0,5.0,72,0.00,,---,0.00,VWS V14.01,2013-08-07 02:56:00,
2013-08-06 23:00:00,71.8,62.3,29.94,ESE,118,5.0,6.0,72,0.00,,---,0.00,VWS V14.01,2013-08-07 03:00:00,
2013-08-06 23:01:00,71.8,62.3,29.94,SSE,155,1.0,8.0,72,0.00,,---,0.00,VWS V14.01,2013-08-07 03:01:00,
2013-08-06 23:06:00,71.7,62.6,29.94,SE,137,0.0,8.0,73,0.00,,---,0.00,VWS V14.01,2013-08-07 03:06:00,
2013-08-06 23:10:00,71.6,62.5,29.94,South,179,1.0,8.0,73,0.00,,---,0.00,VWS V14.01,2013-08-07 03:10:00,
2013-08-06 23:11:00,71.6,62.5,29.94,SSE,152,4.0,5.0,73,0.00,,---,0.00,VWS V14.01,2013-08-07 03:11:00,
2013-08-06 23:16:00,71.5,62.8,29.95,SE,131,6.0,6.0,74,0.00,,---,0.00,VWS V14.01,2013-08-07 03:16:00,
2013-08-06 23:20:00,71.5,62.8,29.94,SE,136,0.0,7.0,74,0.00,,---,0.00,VWS V14.01,2013-08-07 03:20:00,
2013-08-06 23:21:00,71.5,62.8,29.94,South,173,2.0,4.0,74,0.00,,---,0.00,VWS V14.01,2013-08-07 03:21:00,
2013-08-06 23:26:00,71.3,63.0,29.94,SE,142,2.0,9.0,75,0.00,,---,0.00,VWS V14.01,2013-08-07 03:26:00,
2013-08-06 23:30:00,71.3,63.0,29.95,SW,227,1.0,9.0,75,0.00,,---,0.00,VWS V14.01,2013-08-07 03:30:00,
2013-08-06 23:31:00,71.2,62.9,29.95,SSE,153,1.0,5.0,75,0.00,,---,0.00,VWS V14.01,2013-08-07 03:31:00,
2013-08-06 23:40:00,72.3,62.4,29.94,SE,146,2.0,11.0,71,0.00,,---,0.00,VWS V14.01,2013-08-07 03:40:00,
2013-08-06 23:50:00,72.1,62.2,29.94,SSE,155,0.0,7.0,71,0.00,,---,0.00,VWS V14.01,2013-08-07 03:50:00,